This demonstration page uses our WeatherBlox Daily Observations layout. Learn more.

Hourly Observations for February 27, 2020

Temp ( °F °C ) Dew Point ( °F °C ) Humidity (%) Winds ( mph kmh ) Pressure ( in mb ) Visibility ( mi km ) Precip ( " mm )
12:53 am 00:53 Cloudy 28 -2.2 22 -5.6 78 78 WNW 15 24 30.05 1018 10 16.0934 0.001 0.001
1:53 am 01:53 Cloudy 28 -2.2 20 -6.7 72 72 WNW 16 26 30.07 1018 10 16.0934 0.001 0.001
2:53 am 02:53 Cloudy 28 -2.2 20 -6.7 72 72 WNW 16 26 30.08 1019 10 16.0934 0 0
3:53 am 03:53 Cloudy with Light Snow 27 -2.8 19 -7.2 72 72 WNW 15 24 30.08 1019 9 14.48406 0.001 0.001
4:53 am 04:53 Cloudy with Light Snow 26 -3.3 16 -8.9 66 66 WNW 16 26 30.11 1020 9 14.48406 0.001 0.001
5:53 am 05:53 Cloudy 26 -3.3 17 -8.3 69 69 W 12 19 30.12 1020 10 16.0934 0.001 0.001
6:53 am 06:53 Cloudy 25 -3.9 15 -9.4 66 66 W 12 19 30.13 1020 10 16.0934 0 0
7:53 am 07:53 Cloudy 26 -3.3 14 -10 60 60 W 7 11 30.14 1021 10 16.0934 0 0
8:53 am 08:53 Cloudy 27 -2.8 16 -8.9 63 63 W 10 17 30.15 1021 10 16.0934 0 0
9:53 am 09:53 Cloudy 28 -2.2 17 -8.3 63 63 W 14 22 30.14 1021 10 16.0934 0 0
10:53 am 10:53 Cloudy 30 -1.1 17 -8.3 58 58 W 16 26 30.14 1021 10 16.0934 0 0
11:53 am 11:53 Cloudy 31 -0.6 15 -9.4 52 52 W 13 20 30.14 1021 10 16.0934 0 0
12:53 pm 12:53 Cloudy 32 0 16 -8.9 52 52 W 16 26 30.12 1020 10 16.0934 0 0
1:53 pm 13:53 Cloudy 33 0.6 18 -7.8 54 54 WNW 16 26 30.1 1019 10 16.0934 0 0
2:53 pm 14:53 Cloudy 34 1.1 18 -7.8 52 52 WNW 15 24 30.1 1019 10 16.0934 0 0
3:53 pm 15:53 Cloudy 33 0.6 18 -7.8 54 54 W 13 20 30.11 1020 10 16.0934 0 0
4:53 pm 16:53 Cloudy 34 1.1 20 -6.7 56 56 W 10 17 30.11 1020 10 16.0934 0 0
5:53 pm 17:53 Cloudy 33 0.6 20 -6.7 58 58 W 12 19 30.1 1019 10 16.0934 0 0
6:53 pm 18:53 Cloudy 34 1.1 20 -6.7 56 56 SW 7 11 30.09 1019 10 16.0934 0 0
7:53 pm 19:53 Cloudy 34 1.1 21 -6.1 59 59 VRB 7 11 30.09 1019 10 16.0934 0 0
8:53 pm 20:53 Cloudy 34 1.1 21 -6.1 59 59 WSW 7 11 30.08 1019 10 16.0934 0 0
9:53 pm 21:53 Cloudy 34 1.1 23 -5 64 64 WSW 6 9 30.07 1018 10 16.0934 0.001 0.001
10:53 pm 22:53 Cloudy 34 1.1 22 -5.6 61 61 SW 10 17 30.06 1018 10 16.0934 0 0
11:31 pm 23:31 Cloudy with Light Snow 32 0 26 -3.3 79 79 WNW 7 11 30.08 1019 2 3.21868 0.001 0.001
11:39 pm 23:39 Cloudy with Light Snow 32 0 27 -2.8 82 82 NW 6 9 30.08 1019 8 12.87472 0.001 0.001
11:53 pm 23:53 Cloudy with Light Snow 32 0 27 -2.8 82 82 WNW 5 7 30.07 1018 6 9.65604 0.001 0.001

Powered by AerisWeather